Actual water levels and discharges of Elbe river

Guaranteed water level and forecast    Ústí nad Labem-Střekov

Guaranteed water level
225 cm
on 28.09.2022 more information
Forecast
220 cm
on 29.09.2022 07:00
Tendency
steady state
on 29.09.2022 metodika tendence
Forecast
238 cm
on 30.09.2022 07:00
(Source data ČHMÚ a Povodí Labe)

Děčín

Date and time (UTC) H (cm) Q (m³/s)
28. 9. 2022 13:40 205 266
28. 9. 2022 13:00 206 268
28. 9. 2022 12:00 207 270
28. 9. 2022 11:00 207 270
28. 9. 2022 10:00 207 270
28. 9. 2022 09:00 207 270
28. 9. 2022 08:00 207 270
28. 9. 2022 07:00 207 270
28. 9. 2022 06:00 207 270
28. 9. 2022 05:00 208 272
28. 9. 2022 04:00 208 272
28. 9. 2022 03:00 208 272
28. 9. 2022 02:00 208 272
28. 9. 2022 01:00 208 272

H - water level, Q - discharge

Ústí nad Labem

Date and time (UTC) H (cm) Q (m³/s)
28. 9. 2022 13:40 225 244
28. 9. 2022 13:00 227 248
28. 9. 2022 12:00 226 246
28. 9. 2022 11:00 226 246
28. 9. 2022 10:00 226 246
28. 9. 2022 09:00 233 261
28. 9. 2022 08:00 232 259
28. 9. 2022 07:00 231 257
28. 9. 2022 06:00 231 257
28. 9. 2022 05:00 231 257
28. 9. 2022 04:00 231 257
28. 9. 2022 03:00 231 257
28. 9. 2022 02:00 233 261
28. 9. 2022 01:00 233 261

H - water level, Q - discharge
more information

Mělník

Date and time (UTC) H (cm) Q (m³/s)
28. 9. 2022 13:40 279 -
28. 9. 2022 13:00 276 -
28. 9. 2022 12:00 269 -
28. 9. 2022 11:00 267 -
28. 9. 2022 10:00 267 -
28. 9. 2022 09:00 269 -
28. 9. 2022 08:00 271 -
28. 9. 2022 07:00 271 -
28. 9. 2022 06:00 273 220
28. 9. 2022 05:00 277 -
28. 9. 2022 04:00 275 -
28. 9. 2022 03:00 270 -
28. 9. 2022 02:00 275 -
28. 9. 2022 01:00 276 -

H - water level, Q - discharge
more information

Kostelec nad Labem

Date and time (UTC) H (cm) Q (m³/s)
28. 9. 2022 13:40 403 -
28. 9. 2022 13:00 403 -
28. 9. 2022 12:00 404 54
28. 9. 2022 11:00 403 56
28. 9. 2022 10:00 402 44
28. 9. 2022 09:00 402 41
28. 9. 2022 08:00 403 -
28. 9. 2022 07:00 404 54
28. 9. 2022 06:00 403 56
28. 9. 2022 05:00 402 51
28. 9. 2022 04:00 403 49
28. 9. 2022 03:00 404 56
28. 9. 2022 02:00 402 55
28. 9. 2022 01:00 401 42

H - water level, Q - discharge
more information

Přelouč

Date and time (UTC) H (cm) Q (m³/s)
28. 9. 2022 13:30 58 26.7
28. 9. 2022 13:00 58 27
28. 9. 2022 12:00 54 24
28. 9. 2022 11:00 51 22
28. 9. 2022 10:00 51 22
28. 9. 2022 09:00 57 26
28. 9. 2022 08:00 58 27
28. 9. 2022 07:00 59 27
28. 9. 2022 06:00 52 23
28. 9. 2022 05:00 50 22
28. 9. 2022 04:00 54 24
28. 9. 2022 03:00 58 27
28. 9. 2022 02:00 58 27
28. 9. 2022 01:00 54 24

H - water level, Q - discharge
more information

Němčice

Date and time (UTC) H (cm) Q (m³/s)
28. 9. 2022 13:30 87 20.2
28. 9. 2022 13:00 86 20
28. 9. 2022 12:00 86 20
28. 9. 2022 11:00 85 20
28. 9. 2022 10:00 84 19
28. 9. 2022 09:00 84 19
28. 9. 2022 08:00 84 19
28. 9. 2022 07:00 84 19
28. 9. 2022 06:00 84 19
28. 9. 2022 05:00 84 19
28. 9. 2022 04:00 84 19
28. 9. 2022 03:00 85 20
28. 9. 2022 02:00 85 20
28. 9. 2022 01:00 85 20

H - water level, Q - discharge
Source data
Labe Basin Vltava Basin Povodí Moravy ČHMÚ